星链-3951 (STARLINK-3951 )

导读 | 豆包AI

STARLINK-3951是美国SpaceX星链星座中的一颗卫星,于2022年5月13日发射升空,属于星链项目低轨互联网星座组网卫星,运行在近地轨道,旨在为全球提供高速宽带互联网服务,尤其是覆盖偏远地区与网络基础设施薄弱区域,推动全球网络互联的普及,是星链大规模部署中的一员。

Basic Information
目录编号:
52533
目录名称:
STARLINK-3951
国际标识:
2022-051A
轨道中心:
EARTH
卫星名称:
星链-3951
卫星全名:
星链-3951 (STARLINK-3951 )
卫星状态:
已陨落 最后检测时间 2025-01-17
发射日期:
2022-05-13 UTC
国别 :
美国 (US)
星等 :
--
Orbit Information
数据来源 国际轨道数据
星历时间: 2025-01-18T03:41:37+0800
轨道信息已过期468天
半长轴: 6520.455km
偏心率: 0.0003268
轨道倾角: 53.194°
近地点辐角 298.481°
升交点赤经 173.961°
平近点角 169.209°
近地点: 140.189km
远地点: 144.451km
周期: 87.333分钟
每日圈数: 16.488682
Detailed Information
固有亮度:
5
最大亮度:
2.5
卫星平台:
Starlink v1.5
覆盖范围:
全球
运营商:
太空探索技术公司
运营商所在国:
美国
制造商(研发单位):
太空探索技术公司
制造商所在国:
美国
使用方式:
暂无
Satellite Introduction
星链(Starlink)计划是由太空探索技术公司(SpaceX)提出的一个巨型低轨卫星互联网星座项目,计划在2019年至2024年间在太空搭建由约1.2万颗卫星组成的“星链”网络,其中1584颗将部署在地球上空550千米处的近地轨道,并从2020年开始工作。该卫星仍在工作。